Weather in Pereluchi

Russia / Novgorod Oblast     58°12′47″N   34°29′27″E
temp.,
°C
wind,
m/s
gust,
m/s
humid.,
%
clouds,
%
prec.,
mm/h
press.,
hPa
HPBL,
m
19 september, sun
sun1900:00+2ene31083100 0.0 1027349
03:00+2ene41183100 0.0 1026405
06:00+2e41283100 0.0 1026496
09:00+4e51271100 0.0 1026664
12:00+7e6956100 0.0 10261062
15:00+8e5955100 0.0 10251156
18:00+6e51066100 0.0 10251003
21:00+6e51270100 0.0 10251000
20 september, mon
mon2000:00+5ene51373100 0.0 1024938
03:00+5ene61376100 0.0 1024908
06:00+3ene61481100 0.0 1024842
09:00+4ene61474100 0.0 1024936
12:00+7ene61363100 0.0 10241142
15:00+7ene71361100 0.0 10231149
18:00+6e61365100 0.0 10231165
21:00+4e51383100 0.3 1023981
21 september, tue
tue2100:00+3ene51393100 0.1 1022803
03:00+3ene51296100 0.1 1021759
06:00+4ene51296100 0.1 1020724
09:00+4ene41197100 0.5 1019834
12:00+4e41197100 0.6 1018740
15:00+4ene41197100 1.9 1018660
18:00+4e41097100 0.7 1018799
21:00+5ene41095100 1.6 1018682
22 september, wed
wed2200:00+5ene41096100 0.5 1018615
03:00+5ene41096100 0.6 1018570
06:00+6ene41095100 0.4 1018605
09:00+6ene41095100 0.4 1019743
12:00+6ene41094100 0.1 1019782
15:00+6ene41094100 0.7 1019867
18:00+6e4895100 0.4 1019863
21:00+5e3896100 0.5 1020577
23 september, thu
thu2300:00+5e2697100 0.0 1020390
03:00+5e259891 0.0 1019217
06:00+5ese259898 0.0 1019227
09:00+6ese2494100 0.0 1018276
12:00+8se2387100 0.0 1017510
15:00+9se348091 0.1 1015750
18:00+9se2480100 0.0 1014144
21:00+8e388699 0.0 1013328